Voltar ao catálogo

STARLINK-3577

AtivoComunicaçõesVLEO
NORAD 51884·PAYLOAD·🇺🇸 United States

Lançado Mar 3, 2022 de Cape Canaveral Space Force Station

Loading…

Próximas Passagens (próximas 24 horas)

TLE

AtualizadoSource: CelesTrak SupGP

Época: Sep 14, 2026, 20:32 UTC

1 51884C 22022AJ  26257.85604167  .00031329  00000+0  92553-3 0  2574
2 51884  53.1581 216.4463 0001373  96.0443 177.2593 15.34377746    19

Acompanhe STARLINK-3577 em tempo real com AllMySat

Download on the App Store